Regional Weather Roundup
Issued by NWS Boston, MA

Current Version | Previous Version | Text Only | Print | Product List | Glossary Off
Versions: 1 2 3 4 5 6 7 8 9 10 11 12 13 14 15 16 17 18 19 20 21 22 23 24 25 26 27 28 29 30 31 32 33 34 35 36 37 38 39 40 41 42 43 44 45 46 47 48 49 50
001 ASUS41 KBOX 201010 RWRBOX REGIONAL WEATHER ROUNDUP NATIONAL WEATHER SERVICE TAUNTON MA 500 AM EST SAT JAN 20 2018 NOTE: "FAIR" INDICATES FEW OR NO CLOUDS BELOW 12,000 FEET WITH NO SIGNIFICANT WEATHER AND/OR OBSTRUCTIONS TO VISIBILITY. MAZALL-201100- EASTERN MASSACHUSETTS CITY SKY/WX TMP DP RH WIND PRES REMARKS BOSTON MOCLDY 32 21 64 SW12 29.76F WCI 23 BEVERLY FAIR 32 20 61 SW9 29.74F WCI 24 LAWRENCE FAIR 33 20 58 S8 29.73F WCI 26 BEDFORD FAIR 31 20 63 SW9 29.73F WCI 23 BLUE HILL N/A 31 20 63 SW18G26 29.72F WCI 19 NORWOOD FAIR 35 22 58 S7 29.77F WCI 29 MARSHFIELD FAIR 34 23 64 SW9 29.78F WCI 26 PLYMOUTH FAIR 35 25 66 S9 29.79F WCI 28 TAUNTON FAIR 35 23 61 S6 29.79F WCI 30 NEW BEDFORD FAIR 36 25 64 SW8 29.81F WCI 30 $$ MAZALL-201100- CAPE COD AND THE ISLANDS CITY SKY/WX TMP DP RH WIND PRES REMARKS FALMOUTH FAIR 37 28 70 SW18 29.83 WCI 27 HYANNIS FAIR 37 31 78 SW16 29.81F WCI 28 CHATHAM FAIR 37 33 85 SW9G18 29.84F WCI 30 PROVINCETOWN FAIR 36 30 79 SW16 29.80F WCI 26 NANTUCKET FAIR 38 36 92 SW15 29.86F WCI 29 MARTHAS VNYRD FAIR N/A N/A N/A SW12G18 29.85S $$ MAZALL-201100- CENTRAL AND WESTERN MASSACHUSETTS CITY SKY/WX TMP DP RH WIND PRES REMARKS WORCESTER FAIR 29 18 63 SW12 29.71F WCI 19 FITCHBURG FAIR 34 22 61 VRB5 29.72F WCI 30 ORANGE FAIR 19 19 100 CALM 29.74F SPRINGFIELD FAIR 29 19 67 S7 29.74F WCI 22 WESTFIELD FAIR 29 20 69 S5 29.74F WCI 24 NORTH ADAMS FAIR 16 14 92 CALM 29.74F PITTSFIELD FAIR 20 14 77 CALM 29.70F $$ RIZALL-201100- RHODE ISLAND CITY SKY/WX TMP DP RH WIND PRES REMARKS PROVIDENCE FAIR 36 23 59 SW12 29.81F WCI 28 NEWPORT FAIR 37 24 59 SW8 29.82F WCI 31 BLOCK ISLAND FAIR 38 30 73 SW21 29.86S WCI 28 SMITHFIELD FAIR N/A N/A N/A VRB6 29.77F WESTERLY FAIR 37 28 70 SW8 29.84F WCI 31 $$ CTZALL-201100- CONNECTICUT CITY SKY/WX TMP DP RH WIND PRES REMARKS BRADLEY INTL MOCLDY 30 21 69 S9 29.77F WCI 22 HARTFORD FAIR 32 21 64 S10 29.81F WCI 24 BRIDGEPORT FAIR 34 28 79 SW8 29.85F WCI 27 DANBURY FAIR 24 18 77 CALM 29.83F GROTON FAIR 36 27 69 SW8 29.84F WCI 30 NEW HAVEN FAIR 34 27 75 SW5 29.84F WCI 30 CHESTER FAIR 34 23 64 SW10 29.82F WCI 26 MERIDEN FAIR 30 21 69 S6 29.83F WCI 24 WILLIMANTIC FAIR 29 21 72 SW6 29.81F WCI 23 OXFORD FAIR 28 20 71 S5 29.81F WCI 23 $$ MEZ002-015-021-024-NHZ003-005-008-011-012-014-VTZ005-008-201100- NORTHERN NEW ENGLAND CITY SKY/WX TMP DP RH WIND PRES REMARKS PORTLAND ME MOCLDY 31 21 66 S13 29.66F WCI 21 BANGOR ME CLOUDY 29 22 75 S8 29.63F WCI 21 CONCORD NH FAIR 27 20 75 SE5 29.68F WCI 22 MANCHESTER NH CLOUDY 31 20 63 S10 29.69F WCI 22 NASHUA NH FAIR 28 22 78 VRB3 29.71F PORTSMOUTH NH CLOUDY 32 20 60 SW10 29.68F WCI 24 JAFFREY NH FAIR 28 20 71 SW8 29.68F WCI 20 KEENE NH FAIR 20 19 96 CALM 29.72F BURLINGTON VT FAIR 35 21 56 S20G26 29.56F WCI 24 MT. WASHINGTON PTCLDY 25 12 58 W78G86 N/A WCI 1 $$ NYZ052-076-201100- EASTERN NEW YORK CITY SKY/WX TMP DP RH WIND PRES REMARKS ALBANY MOCLDY 28 18 66 S7 29.74F WCI 21 NEW YORK CITY FAIR 40 19 43 SW12G20 29.88F $$ ANZALL-201100- MARINE OBSERVATIONS STATION/POSITION TIME TEMP WIND PRES VSBY WAVE AIR SEA DIR/SP/G HT/PER (UTC) (F) (DEG/KT/KT) (MB) (MI) (FT/S) BOSTON BUOY 0950 36 41 200/ 17/ 21 1007.2F 3/ 9 BUZZARDS BAY 0900 39 240/ 22/ 25 1010.8F NANTUCKET SOUND 0950 37 37 210/ 10/ 12 1010.6F 1/ 3 MASS BAY-STELLWA 0904 35 38 1007.5F 4/ 4 ISLE OF SHOALS 1000 34 220/ 20/ 21 1005.4F S OF BLOCK IS 0943 42 N/A 6/ 5 $$ ......................KEY......................... SKY/WX - SKY CONDITION/PRESENT WEATHER TMP - TEMPERATURE IN FAHRENHEIT DWPT - DEWPOINT IN FAHRENHEIT RH - RELATIVE HUMIDITY IN PERCENT WIND - DIRECTION AND SPEED IN MPH PRES - MEAN SEA LEVEL PRESSURE IN INCHES OF HG WCI - WIND CHILL INDEX VSB - VISIBILITY IN MILES HX - HEAT INDEX TC - TEMPERATURE IN CELSIUS VRB - VARIABLE WIND DIRECTION N/A - NOT AVAILABLE

USA.gov is the U.S. government's official web portal to all federal, state and local government web resources and services.